Regional Weather Roundup
Issued by NWS

Home | Current Version | Previous Version | Graphics & Text | Print | Product List | Glossary On
Versions: 1 2 3 4 5 6 7 8 9 10 11 12 13 14 15 16 17 18 19 20 21 22 23 24 25 26 27 28 29 30 31 32 33 34 35 36 37 38 39 40 41 42 43 44 45 46 47 48 49 50
000
ASUS45 KBOU 032007
RWRCO

WEATHER ROUNDUP FOR COLORADO
NATIONAL WEATHER SERVICE DENVER/BOULDER CO
200 PM MDT MON AUG 03 2015

NOTE: "FAIR" INDICATES FEW OR NO CLOUDS BELOW 12000 FEET WITH NO
SIGNIFICANT WEATHER AND/OR OBSTRUCTIONS TO VISIBILITY.

COZ001>005-013-030-031-032100-
...NORTHWEST COLORADO...

CITY           SKY/WX    TMP DP  RH WIND       PRES   REMARKS
CRAIG          PTSUNNY   77  51  40 CALM      30.13F
HAYDEN         PTSUNNY   72  48  43 E9        30.17F
MEEKER         PTSUNNY   78  50  37 SW13G26   30.14F
MOUNT WERNER   NOT AVBL
STEAMBOAT SPGS   N/A     71  47  42 NE3       30.20F
WALDEN         CLOUDY    70  39  32 SW20      30.28R
$$

COZ006>008-011-032100-
...WEST CENTRAL VALLEYS...

CITY           SKY/WX    TMP DP  RH WIND       PRES   REMARKS
GRAND JUNCTION CLOUDY    81  51  35 CALM      30.07F
MONTROSE       MOSUNNY   84  48  28 W9        30.16F
EAGLE          PTSUNNY   75  46  35 SW13G20   30.21F
RIFLE          TSTM      75  56  51 SE5       30.12F
DELTA          LGT RAIN  82  53  36 CALM      30.12F
NUCLA          PTSUNNY   77  54  44 CALM      30.21F
$$

COZ017>023-064>068-032100-
...SOUTHWEST COLORADO...

CITY           SKY/WX    TMP DP  RH WIND       PRES   REMARKS
DURANGO        MOSUNNY   78  49  35 W13G24    30.23F
CORTEZ         SUNNY     81  53  37 S6        30.20F
PAGOSA SPRINGS PTSUNNY   73  45  36 SW9G16    30.31S
TELLURIDE      PTSUNNY   62  46  55 SE5       30.44F THUNDER
WOLF CREEK PAS NOT AVBL
$$

COZ009-010-012-014-032>034-037-058>063-032100-
...CENTRAL COLORADO...

CITY           SKY/WX    TMP DP  RH WIND       PRES   REMARKS
ASPEN          MOSUNNY   70  49  47 VRB5      30.26F
BUENA VISTA    CLOUDY    68  45  42 CALM      30.30S
COPPER MTN     CLOUDY    54  41  62 S8        30.59S
BERTHOUD PASS  CLOUDY    45  34  65 SE14G32   30.63S
COTTONWOOD PAS CLOUDY    68  45  42 CALM      30.43F
GUNNISON       PTSUNNY   68  48  49 N10       30.32F
KREMMLING      CLOUDY    70  41  35 CALM      30.27F
LEADVILLE      CLOUDY    59  42  53 CALM      30.42F
MONARCH PASS   MOSUNNY   54  39  58 W33G39    30.67F
SALIDA         PTSUNNY   77  47  35 N5        30.32F
SUNLIGHT       MOSUNNY   61  55  82 CALM      30.50F THUNDER
WILKERSON PASS NOT AVBL
$$

COZ069>075-032100-
...SAN LUIS VALLEY/SANGRE DE CRISTO MOUNTAINS...

CITY           SKY/WX    TMP DP  RH WIND       PRES   REMARKS
ALAMOSA        PTSUNNY   74  49  41 S5        30.26F
LA VETA PASS   MOSUNNY   64  45  48 MISG      30.45S
SAGUACHE       MOSUNNY   68  50  52 CALM      30.30F
$$

COZ035-036-038>040-032100-
...NORTHERN COLORADO FRONT RANGE...

CITY           SKY/WX    TMP DP  RH WIND       PRES   REMARKS
DENVER INTL AP CLOUDY    86  41  20 SE12      30.09F
DMNS CITY PARK   N/A     83  42  23 SE10G17   30.07F
AURORA         PTSUNNY   83  43  23 SE13      30.11F
FRONT RANGE AP PTSUNNY   84  39  20 SE12G21   30.11F
ERIE MUNI ARPT CLOUDY    86  35  16 SE7       30.07F
BOULDER MUN AP CLOUDY    81  43  26 NE3       30.08F
CENTENNIAL     CLOUDY    80  45  28 SE14      30.12F
BROOMFIELD     PTSUNNY   82  45  26 SE8       30.12F
FORT COLLINS   CLOUDY    84  48  28 S9        30.07S
LONGMONT       CLOUDY    85  43  22 CALM      30.08F
$$

COZ041-046-047-076>085-087-088-032100-
...PIKES PEAK/PALMER DIVIDE AND SOUTHERN FOOTHILLS...

CITY           SKY/WX    TMP DP  RH WIND       PRES   REMARKS
COLO. SPRINGS  CLOUDY    72  49  44 NE9       30.18R THUNDER
A. F. ACADEMY  TSTM      61  52  72 E12       30.21R
ELLICOTT       TSTM     N/A N/A N/A S22G31    30.17R
FALCON         CLOUDY    62  52  69 CALM      30.26R
FORT CARSON    PTSUNNY   78  52  39 NE6       30.14R
LIMON          CLOUDY    82  47  29 SE14      30.10F
MONUMENT HILL  NOT AVBL
TRINIDAD       SUNNY     86  48  26 VRB5      30.10F
$$

COZ042>045-048>051-090-091-032100-
...NORTHEAST COLORADO...

CITY           SKY/WX    TMP DP  RH WIND       PRES   REMARKS
GREELEY ARPT   CLOUDY    84  46  26 S8        30.05F
AKRON          CLOUDY    85  54  34 S14       30.07S
BURLINGTON     PTSUNNY   87  52  29 SE15      30.04F
WRAY           CLOUDY    90  52  27 SE6       30.01S
STERLING       CLOUDY    88  57  35 S9        30.01S
HOLYOKE        CLOUDY    84  61  45 SE8       30.02F
FORT MORGAN    CLOUDY    86  52  31 E5        30.05F
$$

COZ086-089-092>099-032100-
...SOUTHEAST COLORADO...

CITY           SKY/WX    TMP DP  RH WIND       PRES   REMARKS
PUEBLO         PTSUNNY   87  52  29 CALM      30.04F
LA JUNTA       PTSUNNY   86  57  37 NW9       30.00S
LAMAR          RAIN      70  59  68 CALM      29.99R
SPRINGFIELD      N/A     84  55  36 SE16      30.02S
$$


USA.gov is the U.S. government's official web portal to all federal, state and local government web resources and services.